Regional Weather Roundup
Issued by NWS

Home | Current Version | Previous Version | Graphics & Text | Print | Product List | Glossary On
Versions: 1 2 3 4 5 6 7 8 9 10 11 12 13 14 15 16 17 18 19 20 21 22 23 24 25 26 27 28 29 30 31 32 33 34 35 36 37 38 39 40 41 42 43 44 45 46 47 48 49 50
000
ASUS45 KBOI 010510
RWRID
WEATHER ROUNDUP FOR IDAHO
NATIONAL WEATHER SERVICE BOISE ID
1000 PM MST SAT FEB 28 2015

NOTE: "FAIR" INDICATES FEW OR NO CLOUDS BELOW 12000 FEET
WITH NO SIGNIFICANT WEATHER AND/OR OBSTRUCTIONS TO VISIBILITY

IDZ012-014-010600-
SOUTHWEST IDAHO


CITY           SKY/WX    TMP DP  RH WIND       PRES   REMARKS
BOISE          MOCLDY    34  26  72 SW5       29.97R WCI  30
CALDWELL       FAIR      36  19  51 NW18      30.00R WCI  25
MOUNTAIN HOME  MOCLDY    39  32  75 NW9       29.97R WCI  33
$$

IDZ016-017-010600-
SOUTHCENTRAL IDAHO


CITY           SKY/WX    TMP DP  RH WIND       PRES   REMARKS
BURLEY         CLOUDY    31  13  47 E7        29.96R WCI  24
JEROME         CLEAR     35  11  36 NE15      29.96R WCI  25
TWIN FALLS     PTCLDY    28  23  81 S5        29.96R WCI  23
$$

IDZ019>023-010600-
SOUTHEAST IDAHO


CITY           SKY/WX    TMP DP  RH WIND       PRES   REMARKS
IDAHO FALLS    CLEAR     24  11  57 N17G24    29.99R WCI  11
POCATELLO      CLEAR     28  10  46 NE13G23   29.99R WCI  17
REXBURG        CLEAR     20   9  62 NE8       29.99R WCI  10
$$

IDZ006-010-011-018-031-032-010600-
CENTRAL IDAHO MOUNTAINS


CITY           SKY/WX    TMP DP  RH WIND       PRES   REMARKS
MCCALL         FAIR      28  12  51 N8        29.99R WCI  20
HAILEY         MOCLDY    30  25  80 CALM      29.96R
STANLEY          N/A     23  11  60 NW6       29.95R WCI  16
SALMON         FAIR      25  12  58 CALM      30.08R
CHALLIS        CLEAR     26  10  50 NW8       30.01R WCI  18
$$

IDZ002-004-006-007-026-010600-
NORTHERN IDAHO


CITY           SKY/WX    TMP DP  RH WIND       PRES   REMARKS
LEWISTON       FAIR      39  15  37 NW5       30.17R
LOWELL           N/A     29  21  72 CALM      30.20R
COEUR D`ALENE  FAIR      27  14  59 E8        30.18R WCI  18
MULLAN PASS    FAIR      16  -4  41 SE6       30.05R WCI   7
$$



USA.gov is the U.S. government's official web portal to all federal, state and local government web resources and services.